Regional Weather Roundup
Issued by NWS

Home | Current Version | Previous Version | Text Only | Print | Product List | Glossary On
Versions: 1 2 3 4 5 6 7 8 9 10 11 12 13 14 15 16 17 18 19 20 21 22 23 24 25 26 27 28 29 30 31 32 33 34 35 36 37 38 39 40 41 42 43 44 45 46 47 48 49 50
000
ASUS44 KFWD 240115
RWRTX
NORTH TEXAS HOURLY WEATHER ROUNDUP
NATIONAL WEATHER SERVICE FORT WORTH TX
800 PM CDT THU MAR 23 2017

NOTE: "FAIR" INDICATES FEW OR NO CLOUDS BELOW 12,000 FEET WITH NO
SIGNIFICANT WEATHER AND/OR OBSTRUCTIONS TO VISIBILITY.

TXZ118-119-240200-
DALLAS/FORT WORTH METROPLEX

CITY           SKY/WX    TMP DP  RH WIND       PRES   REMARKS
DFW AIRPORT    PTCLDY    80  46  30 S25G43    29.85S
DALLAS LOVE    PTCLDY    80  44  27 S23G33    29.89R
FTW MEACHAM    CLEAR     80  44  27 S31G40    29.84F
DAL-EXECUTIVE  CLEAR     79  43  27 S17G31    29.89R
FTW-ALLIANCE   PTCLDY    78  45  30 S24G38    29.83F
FTW-SPINKS     CLEAR     78  45  30 S18G32    29.89R
ARLINGTON      CLEAR     78  45  30 SE21G29   29.88R
ADDISON        CLEAR     81  45  28 S26G43    29.89R
MESQUITE       CLEAR     77  46  33 SE16G25   29.91S
LANCASTER      CLEAR     77  45  32 S16G24    29.91S
$$

TXZ091>094-102>105-117-120-121-131>134-240200-
NORTH CENTRAL TEXAS

CITY           SKY/WX    TMP DP  RH WIND       PRES   REMARKS
SHRMAN/DENISON CLEAR     77  51  39 SE22G31   29.87F
GAINESVILLE    CLEAR     75  49  40 SE20G31   29.86R
BOWIE          CLEAR     78  45  30 SE30G39   29.80S
BRIDGEPORT     CLEAR     78  45  31 S17G26    29.83S
DECATUR        CLEAR     78  45  31 S21G32    29.84S
DENTON         CLEAR     78  48  34 S29G38    29.85F
MCKINNEY       CLEAR     78  52  40 S22       29.89R
BONHAM         CLEAR     77  50  38 S17       29.90S
GREENVILLE     CLEAR     77  45  31 S14       29.91S
ROCKWALL       CLEAR     77  51  39 S17G25    29.90S
TERRELL        CLEAR     77  49  37 S13       29.92S
WAXAHACHIE     CLEAR     76  46  33 S17G23    29.92R
CLEBURNE       CLEAR     75  48  38 S17G26    29.89S
GRANBURY       CLEAR     80  45  29 SE16G32   29.85F
$$

TXZ083>090-098>101-113>116-127>130-139>142-154-155-240200-
WESTERN NORTH TEXAS

CITY           SKY/WX    TMP DP  RH WIND       PRES   REMARKS
WICHITA FALLS  MOCLDY    77  46  33 S20G30    29.73S
WF-KICKAPOO    PTCLDY    78  47  32 SE26G36   29.74S
VERNON           N/A    N/A N/A N/A S30       29.68F
ABILENE        CLEAR     75  46  35 S31G45    29.74S
ABILENE-DYESS  CLEAR     76  50  39 SW30G41   29.71F
GRAHAM         CLEAR     78  48  35 SE21G35   29.76R
BRECKENRIDGE   CLEAR     79  43  27 S24G38    29.77S
CISCO          CLEAR     77  46  33 SE28G38   29.78R
RANGER         CLEAR     73  43  33 S21G29    29.81F
MINERAL WELLS  CLEAR     77  42  28 SE21G33   29.80F
STEPHENVILLE   CLEAR     76  38  25 S20G33    29.87S
COMANCHE       CLEAR     75  43  31 S17G38    29.82F
BROWNWOOD      CLEAR     75  45  33 SE23G33   29.81R
COLEMAN        CLEAR     76  46  34 S22G35    29.80R
$$

TXZ143>147-156>162-174-175-240200-
CENTRAL TEXAS

CITY           SKY/WX    TMP DP  RH WIND       PRES   REMARKS
WACO           CLEAR     76  47  35 S23G30    29.91S
WACO-MCGREGOR  CLEAR     76  46  34 S20G31    29.92R
HILLSBORO      CLEAR     76  48  36 SE16G23   29.91R
CORSICANA      CLEAR     78  44  29 S20G33    29.94S
MEXIA          CLEAR     75  43  31 S20G29    29.94S
CAMERON        CLEAR     75  48  38 S10G20    29.95R
TEMPLE         CLEAR     75  46  35 S24G31    29.92S
KILLEEN        CLEAR     73  44  34 SE20G28   29.91R
KILLEEN-SKYLRK CLEAR     75  48  38 S20G30    29.93R
FORT HOOD      CLEAR     75  46  35 S16G24    29.90R
GATESVILLE     CLEAR     75  45  33 S16G26    29.93S
HAMILTON       CLEAR     75  43  31 S30G37    29.89S
LAMPASAS       CLEAR     76  47  36 S14G25    29.91R
$$

TXZ095>097-106>112-122>126-135>138-148>153-164>167-240200-
EAST TEXAS

CITY           SKY/WX    TMP DP  RH WIND       PRES   REMARKS
PARIS          CLEAR     75  48  38 SE12      29.93S
SULPHUR SPRNGS CLEAR     79  46  31 S14       29.94F
MOUNT PLEASANT CLEAR     76  45  32 SE10      29.97S
GILMER         CLEAR     78  40  25 S12G21    29.98S
MINEOLA        CLEAR     79  48  34 SE10G21   29.94F
TYLER          CLEAR     78  43  28 S14G24    29.96S
LONGVIEW       CLEAR     78  48  34 S13       29.98S
MARSHALL       CLEAR     75  45  34 S9        30.03R
ATHENS         CLEAR     77  43  29 S12       29.94S
PALESTINE      CLEAR     78  45  31 SE7       29.98S
JACKSONVILLE   CLEAR     76  37  24 S13G23    30.02S
HENDERSON      CLEAR     77  44  31 S7        30.01S
CENTER         CLEAR     78  46  32 SE9       30.04S
NACOGDOCHES    CLEAR     75  45  33 S12       30.01S
LUFKIN         CLEAR     73  45  36 S8        30.04R
$$

SUPPLEMENTAL OBSERVATIONS (CENTRAL)

CITY           SKY/WX    TMP DP  RH WIND       PRES   REMARKS
DENISON DAM      N/A     79  48  34 S17         N/A
CADDO GRASSLND   N/A     79  48  34 S13         N/A
PAT MAYSE LAKE   N/A     79  43  27 SE14        N/A
GREENVILLE       N/A     79  50  36 S10G22      N/A
CEDAR HILL       N/A     79  43  27 S17G29      N/A
ATHENS           N/A     79  43  27 S15G28      N/A
LAKE LIMESTONE   N/A     75  39  27 S8G26       N/A
MCGREGOR         N/A     73  43  33 S16G30      N/A
TEMPLE           N/A     73  48  40 S15G29      N/A
$$

SUPPLEMENTAL OBSERVATIONS (WEST)

CITY           SKY/WX    TMP DP  RH WIND       PRES   REMARKS
MILLERS CREEK    N/A     77  46  33 S25G40      N/A
POSSUM KINGDOM   N/A     77  43  29 SE21G35     N/A
LBJ GRASSLAND    N/A     79  46  31 SE20G33     N/A
GRANBURY         N/A     79  46  31 SE18G35     N/A
COMANCHE         N/A     73  41  31 SE25G37     N/A
HAMBY            N/A     75  45  33 S24G38      N/A
IVIE RESERVOIR   N/A     75  48  38 SE21G35     N/A
COLORADO BEND    N/A     73  39  29 S18G26      N/A
$$

SUPPLEMENTAL OBSERVATIONS (EAST)

CITY           SKY/WX    TMP DP  RH WIND       PRES   REMARKS
TEXARKANA        N/A     77  48  36 SE5         N/A
LINDEN           N/A     77  46  33 S3G14       N/A
CADDO LAKE       N/A    N/A N/A N/A SE3         N/A
LUFKIN           N/A     75  43  31 MISG        N/A
N SABINE NF      N/A     72  46  40 MISG        N/A
$$

SUPPLEMENTAL OBSERVATIONS ARE A COLLECTION OF AUTOMATED INSTRUMENTS
THAT ARE MAINTAINED BY A VARIETY OF FEDERAL AND STATE AGENCIES.
CERTAIN ELEMENTS...SUCH AS HUMIDITY VALUES AND SUSTAINED WIND
SPEEDS...MAY BE APPROXIMATED.




USA.gov is the U.S. government's official web portal to all federal, state and local government web resources and services.